Home > Weather > Memphis > Past weeks

Flag for USA Weather for the Past 2 Weeks in Memphis, Tennessee, USA

Now
76 °F

Passing clouds.


Feels Like: 77 °F
Forecast: 64 / 82 °F
Wind: 6 mph from South

Location: Memphis International Airport

Current Time: May 1, 2016 at 10:49:13 AM

Latest Report: May 1, 2016 at 9:54 AM


Visibility: 10 mi

Pressure: 29.92 "Hg

Humidity: 77%

Dew Point: 68 °F

Location of MemphisLocation

Historic Weather in Memphis — Graph

°F

Memphis Temperature Yesterday

Maximum temperature yesterday: 77 °F (at 4:54 PM)
Minimum temperature yesterday: 65 °F (at 12:54 AM)
Average temperature yesterday: 69 °F

High & Low Weather Summary for the Past Weeks

 TemperatureHumidityPressure
High85 °F (Apr 28, 4:54 PM)94% (Apr 20, 7:54 PM)30.30 "Hg (Apr 20, 7:54 PM)
Low56 °F (Apr 23, 5:54 AM)28% (Apr 17, 4:54 PM)29.64 "Hg (Apr 27, 12:54 PM)
Average70 °F65%29.97 "Hg
* Reported Apr 16 8:54 AM — May 1 8:54 AM, Memphis, Weather by CustomWeather, © 2016

Note: Actual official high and low records may vary slightly from our data, if they occured in-between our weather recording intervals... More about our weather records

Advertising

Memphis Weather History for the Previous 24 Hours

Scroll right to see more
 ConditionsComfort  
Time TempWeatherWind HumidityBarometerVisibility
8:54 AM
Sun, May 1
74 °FScattered clouds.3 mph79%29.91 "Hg10 mi
7:54 AM69 °FScattered clouds.7 mph87%29.90 "Hg10 mi
6:54 AM65 °FPassing clouds.No wind94%29.88 "Hg10 mi
5:54 AM65 °FPassing clouds.No wind91%29.87 "Hg10 mi
4:54 AM66 °FPartly cloudy.6 mph90%29.88 "Hg10 mi
3:54 AM66 °FPassing clouds.8 mph90%29.87 "Hg10 mi
2:54 AM66 °FClear.5 mph87%29.84 "Hg10 mi
1:54 AM67 °FClear.6 mph90%29.84 "Hg10 mi
12:54 AM67 °FClear.6 mph90%29.85 "Hg10 mi
11:54 PM
Sat, Apr 30
69 °FPassing clouds.5 mph84%29.85 "Hg10 mi
10:54 PM68 °FPassing clouds.5 mph87%29.84 "Hg10 mi
9:54 PM71 °FPassing clouds.7 mph78%29.83 "Hg10 mi
8:54 PM72 °FPassing clouds.5 mph73%29.82 "Hg10 mi
7:54 PM72 °FPassing clouds.No wind73%29.80 "Hg10 mi
6:54 PM74 °FPartly sunny.No wind71%29.80 "Hg10 mi
5:54 PM76 °FScattered clouds.6 mph64%29.79 "Hg10 mi
4:54 PM77 °FPassing clouds.No wind64%29.78 "Hg10 mi
3:54 PM75 °FScattered clouds.17 mph64%29.73 "Hg10 mi
2:54 PM73 °FPartly sunny.8 mph66%29.77 "Hg10 mi
1:54 PM73 °FOvercast.3 mph66%29.78 "Hg10 mi
12:54 PM71 °FSunny.5 mph76%29.81 "Hg10 mi
11:54 AM70 °FLight rain. Overcast.28 mph66%29.79 "Hg10 mi
10:54 AM70 °FLight rain. Mostly cloudy.17 mph64%29.78 "Hg10 mi
Weather by CustomWeather, © 2016

See weather overviewHow to use our weather pages